Temperature
19 20 21 21 23 23 22 23 23 23 23 22 21 21 22 23 22 22 20 20 19 18 17 16 16 15 14 13 13 12 12 11 11 11 11 10 10 10 10 9 9 9 9 9 9 10 10 11 11
19 20 20 22 23 22 22 23 23 23 22 20 20 21 22 22 20 20 20 20 19 18 17 16 16 15 14 13 13 13 12 12 11 11 11 10 10 10 10 9 9 9 9 9 9 10 10 11 11
19 20 21 23 22 22 22 23 23 22 20 20 21 21 22 22 20 19 20 20 19 18 17 16 16 16 15 14 13 13 12 12 11 11 11 10 10 10 9 9 9 9 9 9 9 9 10 10 11
19 20 22 23 22 22 23 23 22 22 21 20 21 22 21 20 20 20 20 20 19 18 17 16 16 16 15 14 13 13 12 12 11 11 10 10 10 9 9 9 9 9 9 9 9 9 9 10 11
19 22 22 22 22 22 23 22 21 22 22 21 21 23 22 21 20 20 20 19 19 18 17 16 16 15 15 14 13 13 12 12 12 11 11 10 10 9 9 9 9 9 9 9 9 9 9 10 10
20 22 22 22 22 22 22 21 21 22 22 21 21 22 22 21 20 20 19 19 18 18 17 16 16 15 15 14 13 13 12 12 12 11 11 10 10 10 10 10 9 9 9 9 9 10 10 10 10
21 22 22 21 21 22 22 21 22 22 22 22 21 22 22 20 20 20 19 19 18 18 17 16 15 15 14 13 13 13 12 12 11 11 11 10 10 10 9 9 9 9 9 10 10 10 10 10 10
20 22 21 21 21 21 22 20 20 21 22 20 20 22 22 20 20 19 19 19 18 18 17 15 14 14 13 13 13 12 12 11 11 11 10 10 10 10 9 9 9 9 10 10 10 10 10 10 10
20 22 21 21 21 22 21 21 21 19 20 19 19 20 20 19 19 19 18 18 18 18 17 16 14 13 13 12 12 12 11 11 11 10 10 10 10 9 9 9 9 9 9 9 10 10 10 10 10
21 21 21 21 22 22 21 21 21 20 21 21 20 19 19 19 18 18 17 18 18 18 17 16 15 14 13 12 11 11 11 11 10 10 10 10 9 9 9 9 10 9 9 9 9 9 9 9 9
21 21 21 20 20 20 20 20 19 20 21 21 20 19 18 18 18 17 17 16 17 17 17 16 15 14 13 12 12 11 10 10 10 10 10 10 9 10 10 9 9 9 9 9 9 9 8 9 9
20 20 19 20 18 18 19 19 19 19 20 18 17 17 17 17 17 17 17 16 16 16 16 16 15 15 14 13 12 12 11 11 10 10 10 10 10 10 10 10 9 9 9 9 9 9 8 9 9
20 20 18 18 17 17 17 18 19 18 17 16 16 17 17 17 17 17 17 17 17 17 16 16 15 15 14 13 12 12 12 11 11 11 10 10 10 10 9 9 9 9 9 9 9 8 8 8 8
19 18 18 18 18 17 17 18 17 18 16 15 15 15 16 16 17 17 18 18 17 17 17 16 15 15 14 14 13 12 11 11 11 10 10 10 9 9 9 9 9 8 8 8 8 8 7 8 8
17 19 20 19 18 17 17 19 18 16 16 16 15 15 15 15 16 17 18 18 18 17 17 16 16 15 14 13 13 12 11 11 10 10 10 10 9 9 8 8 8 8 8 8 8 7 7 7 7
18 19 20 19 18 17 18 20 19 15 16 16 15 15 14 14 15 17 18 18 18 18 17 17 16 15 14 13 12 12 11 11 10 10 9 9 9 8 8 8 8 8 8 8 7 7 7 7 7
19 20 20 20 18 18 19 20 19 15 16 16 16 15 14 14 15 16 17 18 18 17 17 17 16 15 14 13 12 11 11 11 10 10 9 9 9 8 8 8 8 7 7 8 7 7 7 6 6
20 20 19 20 19 18 19 19 19 16 16 16 15 15 14 14 14 15 16 17 17 17 16 16 15 15 14 13 12 12 11 11 11 10 10 9 9 9 8 8 8 7 7 8 7 7 7 7 6
19 19 19 19 17 17 18 18 18 16 16 16 15 15 14 13 13 15 15 16 16 16 16 15 15 14 14 13 12 12 12 11 11 11 10 10 10 9 9 9 8 8 8 8 7 7 7 7 6
17 18 19 19 16 17 17 17 17 16 16 15 15 14 13 13 13 14 15 15 15 15 15 14 14 14 13 13 12 12 12 11 11 11 11 10 10 10 9 9 9 8 8 8 8 7 7 7 6
17 18 19 18 17 16 16 18 17 16 15 13 13 13 13 13 13 13 14 14 14 14 14 14 13 13 13 12 12 12 12 11 11 11 10 10 10 10 9 9 9 8 8 8 8 7 6 6 6
18 17 17 16 17 19 17 19 18 17 16 15 14 13 13 12 12 13 13 13 14 13 13 13 13 13 12 12 12 11 11 10 10 10 10 9 9 9 9 8 8 8 7 7 7 7 6 6 6
17 15 16 16 17 17 17 18 20 17 17 16 15 14 13 12 12 12 13 13 13 13 12 12 12 12 12 11 11 11 10 10 9 9 9 8 8 8 8 8 7 7 7 7 7 6 6 6 5
15 15 14 15 16 18 18 18 19 18 18 18 16 14 12 11 11 12 12 12 12 12 12 12 11 11 11 11 10 10 9 9 8 8 8 8 7 7 7 7 7 6 6 6 6 6 6 6 5
16 17 18 18 18 19 16 16 19 18 18 18 16 14 13 12 11 11 11 11 11 11 11 11 11 11 10 10 9 9 8 8 8 7 7 7 7 7 6 6 6 6 6 6 6 5 5 5 5
16 17 18 19 19 19 15 17 19 16 15 15 15 14 12 12 11 11 11 11 11 11 11 11 10 10 10 9 9 8 8 7 7 7 6 6 6 6 6 6 6 6 5 5 5 5 5 4 4
16 17 17 18 16 17 19 18 18 14 14 13 14 13 12 12 11 11 11 11 11 11 11 10 10 9 9 8 8 7 7 6 6 6 6 6 6 6 6 5 5 5 5 5 4 4 4 3 3
15 16 16 17 17 18 18 18 19 16 15 14 14 13 13 11 10 10 10 10 10 10 10 10 9 9 8 8 7 7 6 6 6 6 6 5 5 5 5 5 5 5 4 4 3 3 3 2 2
14 15 16 17 17 17 18 19 18 18 17 15 15 14 13 11 10 10 10 10 10 10 9 9 8 8 7 7 6 6 6 6 5 5 5 5 5 5 5 4 4 4 4 3 3 2 1 1 1
16 16 16 17 17 16 17 18 17 16 16 15 14 13 12 10 10 10 10 9 9 9 9 8 8 7 7 6 6 5 5 5 5 5 5 5 4 4 4 4 3 3 3 2 2 1 1 -0 -1
Wind_Speed
3 2 3 3 4 4 2 1 2 3 1 1 0 2 4 5 5 4 3 8 8 15 21 22 21 19 17 15 14 12 11 10 9 9 9 9 9 9 9 9 10 10 11 11 12 12 12 13 13
2 2 3 4 5 5 2 1 2 4 2 0 2 3 3 2 2 2 3 8 11 17 21 21 22 20 18 16 15 13 12 11 10 9 9 8 8 8 9 8 9 9 10 10 10 11 11 11 11
2 3 3 4 6 4 2 1 4 4 1 3 3 3 3 3 0 1 3 10 12 17 20 20 22 20 18 17 15 14 12 11 10 9 8 8 8 7 8 8 8 8 8 9 9 9 10 10 10
3 4 4 6 6 4 2 3 5 4 2 3 3 3 2 0 1 3 4 12 13 17 19 21 23 21 19 18 16 15 13 12 11 9 8 8 7 7 7 7 7 6 7 7 8 8 8 8 8
3 5 7 7 6 2 2 4 4 3 1 2 3 4 2 4 2 2 5 11 13 16 18 20 22 21 20 18 17 16 14 13 11 10 9 8 7 7 6 6 5 5 5 5 6 6 7 7 7
3 5 7 8 7 3 3 2 2 2 1 2 3 4 3 5 2 2 6 10 12 15 17 19 22 21 20 19 18 16 15 13 12 11 9 8 7 7 6 5 5 4 4 4 4 4 5 5 5
4 6 6 6 6 5 3 1 2 3 3 3 2 4 3 5 4 3 6 9 11 14 16 17 20 20 20 19 18 17 15 14 13 11 10 9 8 7 7 6 5 4 3 2 2 2 2 3 3
1 4 6 6 7 6 1 2 3 4 4 0 3 6 5 4 3 4 6 8 10 13 15 16 17 18 18 18 18 17 16 14 13 12 10 9 8 8 7 7 6 5 4 3 2 1 1 0 1
2 7 8 7 6 5 2 4 3 3 5 4 5 6 3 3 4 6 7 9 11 12 14 16 16 16 17 16 17 17 16 14 13 12 11 10 9 9 8 7 7 6 5 5 4 4 4 3 3
4 9 10 5 6 6 4 6 5 5 8 8 7 6 2 3 5 8 9 12 14 15 15 14 15 15 15 14 14 14 14 14 14 12 12 11 9 8 6 6 7 6 5 6 6 6 6 7 6
4 8 7 6 6 5 5 6 4 7 10 9 9 10 5 5 7 9 10 11 12 12 14 14 15 15 14 13 13 12 12 12 13 13 12 10 9 8 8 7 8 8 7 8 6 7 8 8 7
5 5 5 4 3 4 6 5 6 8 8 7 8 9 8 7 8 9 9 9 9 11 13 14 15 15 15 14 13 12 11 11 11 11 12 10 9 9 8 8 8 8 8 9 9 9 10 10 11
7 5 4 5 5 6 7 10 9 8 6 5 5 4 5 6 6 6 7 7 9 11 12 14 15 16 15 14 12 12 12 12 12 11 12 13 10 10 10 10 10 10 10 10 10 11 11 12 12
3 5 6 7 8 4 6 5 4 2 2 3 3 5 5 5 4 3 4 6 8 10 11 12 14 16 16 14 13 12 12 12 12 12 13 14 13 11 10 11 11 11 12 12 12 13 12 12 12
2 6 8 4 3 3 3 4 4 1 2 3 5 6 7 7 6 4 2 3 5 7 8 10 12 14 15 15 14 12 12 12 12 12 14 15 15 14 12 11 11 12 13 13 13 14 13 12 12
3 5 5 3 1 2 4 4 4 1 1 3 5 7 8 9 10 8 6 2 1 4 6 7 8 10 12 12 12 11 11 12 12 12 13 15 16 16 14 12 12 13 12 12 11 11 11 11 12
5 5 4 3 1 1 4 5 3 1 0 3 5 7 9 10 12 12 10 7 5 4 5 5 7 7 8 9 9 10 9 10 11 11 12 13 15 16 15 14 14 14 12 11 11 11 11 12 13
4 5 4 4 1 3 6 8 3 1 2 5 7 8 9 11 12 11 11 11 10 8 7 6 5 5 5 5 6 6 7 8 10 10 12 13 13 14 15 14 15 14 10 11 11 12 12 12 12
3 6 7 5 1 4 7 7 5 1 5 8 8 8 9 10 10 11 12 12 12 11 9 8 6 5 5 4 4 4 5 6 6 9 11 13 13 13 13 12 13 12 11 12 13 12 13 12 10
7 7 8 5 1 4 6 7 2 4 6 7 8 9 10 11 11 12 12 13 13 12 11 9 7 6 4 3 2 1 2 3 4 6 8 10 11 12 12 13 11 11 10 12 12 12 10 9 8
8 9 8 5 2 3 4 4 6 6 6 6 6 7 9 10 12 12 12 13 12 12 10 8 8 6 4 3 2 1 1 2 2 3 4 6 8 10 11 12 12 10 10 10 12 11 13 11 10
7 6 6 4 5 4 3 4 8 11 10 9 9 9 10 10 11 11 12 12 11 10 9 9 8 7 5 3 1 1 1 2 3 4 4 5 5 7 9 10 11 11 10 11 12 11 11 12 11
3 3 3 3 5 6 5 6 6 13 15 15 12 11 10 10 10 11 10 10 9 8 8 8 8 7 5 3 1 1 2 3 4 4 5 5 4 5 6 8 9 9 9 11 12 12 12 11 13
7 5 3 2 4 6 5 7 6 12 19 19 16 13 12 11 10 10 9 9 8 7 6 6 7 6 5 3 2 2 3 4 5 5 5 5 4 4 5 6 8 9 9 10 11 12 14 13 15
6 5 4 4 5 4 3 5 6 7 11 17 18 16 14 12 11 11 10 8 7 6 6 5 5 5 4 3 3 3 3 4 5 6 6 6 6 6 7 6 8 8 9 11 11 12 13 15 16
8 6 5 4 3 1 4 6 2 4 4 8 14 16 15 13 11 10 9 7 6 5 5 4 4 4 4 3 3 3 3 4 4 5 6 7 7 7 9 9 10 11 12 12 12 12 14 14 16
6 6 2 2 1 5 5 5 4 4 5 8 14 16 16 14 12 10 8 7 6 5 4 4 3 3 3 3 3 4 4 5 6 7 7 7 8 8 10 11 12 12 13 13 14 13 15 15 16
1 5 4 4 4 5 5 5 4 8 9 11 16 18 16 13 11 10 8 7 5 4 4 3 3 3 3 3 4 4 5 6 7 8 9 9 11 10 12 13 13 14 14 15 15 15 16 17 17
6 5 4 3 3 4 5 3 1 4 8 13 16 17 16 14 12 10 8 6 5 4 3 3 2 2 3 4 5 6 6 7 8 8 10 10 11 12 13 14 15 15 16 16 16 17 18 19 19
6 6 8 6 6 4 5 5 3 3 5 10 13 13 12 12 11 10 9 7 5 4 3 2 1 2 3 4 6 7 8 8 9 10 11 12 13 13 14 15 16 16 17 17 18 19 19 20 20
Wind_Direction
277 274 243 230 233 232 234 79 360 358 342 23 18 262 324 349 351 3 73 157 153 159 164 169 169 168 168 165 159 156 152 145 139 131 121 114 109 102 94 89 83 78 74 71 69 68 67 65 64
270 242 214 223 239 224 182 110 357 360 13 137 197 233 276 316 309 345 112 159 162 162 165 169 168 170 170 167 163 160 157 151 145 137 128 124 117 108 102 96 90 83 78 74 71 71 70 68 66
210 243 205 210 230 232 181 57 352 350 265 221 209 234 298 346 115 49 83 157 163 164 168 167 169 171 171 169 166 165 163 159 155 148 141 134 125 116 109 102 95 88 82 76 73 71 72 72 68
207 188 198 221 215 221 270 342 342 324 200 216 245 249 228 57 44 53 119 160 165 167 170 168 171 173 174 173 171 170 169 166 164 159 155 149 139 128 119 111 103 96 89 82 76 72 71 74 72
219 193 202 216 220 224 277 323 317 299 227 193 240 280 279 124 97 84 147 166 170 169 172 170 174 176 176 176 175 174 174 174 172 169 167 161 152 143 135 127 119 109 99 90 81 75 70 70 71
179 200 214 220 225 246 274 283 279 279 234 202 234 275 286 114 114 112 157 172 175 172 174 173 177 180 180 181 180 179 180 180 179 177 177 172 165 159 153 148 141 132 117 100 86 76 70 65 67
203 207 227 236 245 256 273 221 268 299 270 236 229 273 269 126 76 123 160 171 176 177 178 178 180 184 185 186 185 185 186 186 186 185 186 183 178 177 174 169 166 162 149 130 107 83 66 59 60
238 218 228 239 251 266 232 206 256 279 298 51 226 267 293 89 94 136 155 171 179 183 186 185 185 186 188 189 190 190 191 192 193 192 192 191 190 193 192 191 185 187 190 191 198 210 245 333 3
234 236 242 246 255 268 217 248 254 254 264 239 236 273 359 95 141 161 169 181 187 192 194 193 192 189 191 192 189 193 194 197 199 199 195 198 207 204 202 199 190 207 215 221 229 238 242 242 243
218 241 249 249 251 272 262 263 282 258 265 268 261 249 208 202 204 207 205 199 196 196 197 197 197 194 193 193 192 198 200 201 205 208 204 208 214 214 213 177 201 218 229 235 240 243 234 242 252
228 248 254 237 244 261 264 266 259 266 277 288 296 305 288 248 236 232 228 220 208 201 197 202 201 199 198 196 198 200 201 203 208 212 211 212 214 217 221 221 212 221 227 237 231 238 245 252 260
237 245 247 251 215 236 260 270 261 256 282 327 309 302 292 269 255 244 239 229 213 206 203 202 202 203 204 204 202 205 205 205 208 209 213 214 218 224 229 233 236 236 235 241 246 251 253 255 257
237 255 245 251 249 260 266 262 272 270 305 321 321 318 307 292 278 258 247 236 220 213 208 205 204 205 205 210 211 211 213 213 214 215 217 221 225 230 234 240 241 244 247 247 250 255 260 260 260
251 257 267 272 265 249 253 261 231 266 354 1 14 9 358 342 324 292 247 235 225 217 211 205 206 208 207 210 214 216 219 218 223 221 224 226 232 237 239 246 246 250 250 253 256 260 264 265 264
254 273 269 239 230 214 231 239 198 52 343 35 45 42 38 34 29 12 327 256 232 216 209 205 206 208 211 215 219 223 225 226 227 229 231 231 235 241 244 251 252 253 254 256 258 263 265 266 267
228 251 245 165 200 188 244 252 143 64 356 57 55 56 53 49 45 37 31 32 176 184 188 193 196 207 211 216 220 224 229 232 235 238 238 238 241 244 249 253 256 258 258 256 257 261 262 263 265
224 236 232 195 159 232 250 263 152 353 265 100 85 73 65 59 48 43 47 61 83 115 139 162 181 195 205 213 220 228 234 238 243 244 245 245 246 247 249 255 260 262 257 256 259 260 261 267 270
223 226 234 249 191 269 261 262 272 336 172 133 112 93 78 64 50 49 57 67 77 88 102 121 147 169 180 195 212 223 236 242 246 247 248 249 249 248 250 255 259 261 256 256 257 260 262 264 272
241 246 259 269 296 272 263 270 281 186 160 143 126 109 93 79 71 66 68 73 79 82 88 97 114 134 153 165 189 216 235 243 246 249 254 254 253 252 249 254 260 256 253 257 262 263 265 265 267
227 247 261 263 208 264 278 276 234 165 156 144 133 121 112 104 89 77 75 73 75 77 81 88 97 116 141 155 173 216 264 272 274 267 263 260 257 255 252 254 258 258 257 260 261 260 260 265 255
227 241 257 264 250 217 280 230 175 160 149 141 138 131 122 112 103 92 84 80 77 73 74 80 86 99 115 139 153 179 245 260 262 270 277 275 269 263 256 257 260 260 258 260 261 258 252 256 259
246 235 237 237 261 251 260 252 184 176 174 170 160 150 136 125 113 104 97 88 81 77 78 81 84 87 96 126 151 191 318 337 343 331 314 305 287 275 268 264 263 263 259 259 260 257 254 254 259
209 112 173 224 251 267 225 243 194 181 190 185 174 162 150 138 126 116 107 100 92 86 83 84 85 81 82 90 86 337 328 330 327 322 315 315 305 288 277 271 266 263 261 260 261 260 254 249 250
138 128 117 178 227 248 214 224 215 194 202 187 178 173 164 153 141 130 122 116 106 97 90 88 86 79 73 72 64 19 348 332 327 327 324 321 313 302 288 278 271 266 263 263 262 260 257 253 252
183 215 237 225 219 234 153 232 249 187 197 191 183 178 172 165 158 150 143 134 121 108 96 92 89 79 68 59 43 20 352 334 328 327 323 318 313 308 307 296 285 278 272 269 267 264 262 258 256
197 225 249 270 266 270 197 240 239 139 170 196 188 179 175 174 169 162 154 143 130 115 103 94 85 74 55 38 23 8 351 331 326 321 314 309 306 305 306 299 291 287 283 278 272 269 266 264 262
176 208 268 276 289 273 248 259 251 169 195 192 187 182 182 180 176 170 161 153 140 124 105 88 78 65 43 20 358 347 339 328 320 314 307 303 300 301 299 297 293 290 287 283 280 273 273 270 267
271 155 165 213 249 259 259 253 238 193 196 188 187 187 184 180 178 174 167 157 144 127 111 92 72 53 25 0 351 330 324 321 314 307 305 303 302 300 297 296 294 292 290 287 283 280 278 277 273
163 180 202 209 256 261 271 258 189 202 190 187 188 187 184 181 179 172 164 153 143 135 123 102 73 37 8 350 337 326 322 317 310 305 304 303 301 299 297 296 295 293 291 290 287 283 283 280 278
221 210 196 221 226 232 268 274 109 211 202 193 187 184 181 175 170 164 159 155 151 142 127 106 57 8 351 338 327 321 316 312 308 306 305 304 301 299 297 295 292 291 290 289 288 288 286 283 281
Height
1556 1558 1560 1562 1560 1558 1560 1558 1557 1558 1558 1561 1562 1562 1560 1559 1560 1565 1563 1560 1560 1560 1562 1563 1565 1567 1568 1569 1570 1571 1572 1572 1572 1573 1572 1572 1572 1572 1571 1571 1570 1570 1569 1568 1568 1567 1566 1565 1564
1555 1558 1561 1561 1559 1562 1561 1557 1557 1558 1560 1562 1562 1562 1561 1560 1561 1562 1560 1560 1560 1560 1562 1563 1565 1567 1568 1570 1571 1571 1572 1573 1573 1573 1573 1573 1573 1573 1572 1572 1571 1571 1570 1569 1569 1568 1567 1566 1566
1555 1558 1561 1558 1559 1560 1560 1557 1557 1559 1560 1561 1561 1561 1561 1560 1561 1561 1560 1560 1560 1560 1562 1563 1565 1567 1568 1570 1571 1572 1572 1573 1573 1574 1574 1574 1574 1573 1573 1572 1572 1571 1571 1570 1569 1569 1568 1567 1567
1556 1559 1560 1557 1559 1557 1557 1556 1559 1558 1559 1560 1560 1559 1560 1560 1560 1560 1559 1559 1560 1560 1561 1563 1564 1566 1568 1569 1571 1572 1573 1573 1574 1574 1574 1574 1574 1574 1573 1573 1573 1572 1571 1571 1570 1570 1569 1568 1568
1556 1557 1556 1558 1558 1557 1557 1559 1559 1557 1557 1559 1559 1557 1558 1558 1558 1559 1559 1559 1560 1560 1561 1562 1564 1566 1567 1569 1570 1571 1573 1573 1574 1574 1575 1575 1575 1574 1574 1574 1573 1573 1572 1572 1571 1571 1570 1569 1568
1558 1555 1556 1558 1557 1557 1557 1559 1559 1557 1557 1558 1559 1557 1557 1557 1557 1557 1558 1558 1559 1560 1561 1562 1563 1565 1567 1568 1570 1571 1572 1573 1574 1574 1575 1575 1575 1575 1574 1574 1574 1573 1573 1572 1572 1571 1571 1570 1569
1557 1554 1556 1557 1557 1556 1557 1558 1557 1556 1556 1557 1558 1556 1555 1555 1556 1556 1556 1557 1557 1558 1560 1561 1562 1564 1566 1567 1569 1570 1572 1573 1574 1574 1575 1575 1575 1575 1575 1575 1574 1574 1573 1573 1572 1571 1571 1570 1569
1556 1555 1556 1556 1557 1556 1557 1558 1557 1557 1555 1556 1556 1555 1554 1554 1554 1554 1554 1555 1556 1557 1558 1560 1562 1563 1565 1566 1568 1569 1571 1572 1573 1574 1574 1575 1575 1575 1575 1575 1574 1574 1573 1573 1572 1571 1571 1570 1569
1556 1557 1556 1556 1556 1554 1556 1556 1556 1556 1555 1555 1554 1554 1553 1552 1551 1552 1552 1552 1553 1554 1556 1558 1560 1562 1564 1565 1567 1568 1569 1571 1572 1573 1573 1574 1575 1576 1575 1575 1574 1573 1573 1572 1572 1571 1570 1570 1569
1556 1556 1553 1553 1554 1554 1555 1555 1555 1554 1553 1552 1551 1551 1549 1548 1548 1548 1549 1550 1551 1552 1553 1555 1557 1559 1562 1563 1565 1567 1568 1569 1570 1572 1572 1573 1574 1574 1574 1573 1573 1573 1572 1571 1571 1570 1569 1568 1568
1555 1553 1552 1554 1554 1555 1554 1554 1553 1552 1549 1549 1549 1549 1547 1545 1545 1545 1546 1547 1548 1549 1551 1553 1555 1557 1559 1561 1563 1565 1566 1567 1568 1570 1571 1571 1572 1572 1572 1572 1571 1571 1570 1570 1569 1569 1568 1567 1566
1555 1553 1554 1553 1554 1554 1553 1552 1551 1550 1549 1548 1547 1545 1543 1542 1542 1542 1542 1544 1545 1546 1548 1550 1552 1554 1556 1558 1560 1562 1563 1564 1566 1567 1568 1569 1569 1570 1570 1570 1570 1569 1568 1568 1567 1566 1565 1564 1563
1554 1553 1553 1553 1553 1552 1551 1550 1550 1547 1547 1546 1544 1542 1540 1539 1538 1538 1539 1540 1541 1543 1545 1547 1549 1551 1553 1555 1557 1559 1560 1562 1563 1564 1565 1566 1566 1567 1567 1567 1567 1566 1566 1565 1564 1563 1562 1561 1559
1553 1553 1552 1551 1551 1550 1549 1548 1548 1546 1545 1544 1542 1540 1538 1536 1535 1535 1536 1537 1538 1540 1542 1544 1546 1548 1550 1552 1554 1556 1557 1558 1560 1561 1562 1563 1563 1564 1564 1563 1563 1563 1562 1561 1560 1559 1558 1556 1555
1553 1552 1548 1548 1548 1548 1549 1545 1545 1545 1544 1544 1542 1539 1536 1534 1533 1533 1533 1534 1535 1537 1539 1540 1543 1545 1546 1549 1551 1552 1554 1555 1556 1557 1558 1559 1559 1560 1560 1559 1559 1558 1557 1557 1555 1554 1553 1551 1549
1551 1549 1545 1545 1546 1547 1548 1541 1543 1544 1544 1543 1542 1540 1537 1534 1533 1532 1532 1533 1534 1535 1536 1538 1539 1541 1543 1545 1547 1549 1550 1551 1552 1553 1554 1554 1555 1555 1555 1555 1554 1554 1552 1551 1550 1549 1547 1545 1543
1547 1544 1543 1543 1545 1545 1544 1540 1542 1543 1543 1542 1541 1540 1539 1537 1534 1533 1532 1533 1533 1534 1535 1536 1537 1539 1540 1542 1543 1545 1546 1547 1548 1549 1549 1549 1550 1550 1550 1549 1549 1548 1546 1545 1544 1543 1541 1539 1537
1544 1543 1543 1542 1542 1544 1542 1538 1540 1542 1542 1541 1541 1541 1540 1538 1536 1535 1534 1534 1534 1534 1535 1536 1536 1537 1538 1540 1541 1542 1543 1544 1544 1545 1545 1545 1545 1544 1544 1543 1543 1542 1540 1539 1538 1536 1535 1532 1530
1544 1543 1542 1540 1543 1544 1540 1538 1538 1540 1541 1541 1542 1542 1541 1539 1538 1537 1536 1536 1536 1536 1536 1537 1537 1538 1539 1539 1540 1541 1542 1542 1542 1542 1541 1541 1540 1539 1539 1538 1537 1536 1534 1533 1532 1530 1528 1526 1524
1545 1544 1541 1540 1544 1543 1539 1537 1537 1539 1540 1541 1542 1542 1542 1542 1540 1539 1539 1539 1538 1538 1538 1539 1539 1539 1540 1540 1541 1541 1541 1540 1540 1539 1539 1538 1537 1536 1534 1533 1532 1531 1529 1527 1526 1524 1522 1519 1518
1543 1542 1539 1540 1541 1543 1542 1534 1536 1538 1541 1542 1543 1543 1543 1543 1542 1541 1541 1541 1541 1540 1541 1541 1541 1541 1541 1541 1541 1541 1540 1540 1539 1538 1536 1535 1534 1532 1531 1529 1528 1526 1524 1522 1521 1518 1516 1513 1512
1539 1539 1541 1542 1540 1534 1539 1530 1531 1533 1537 1540 1542 1543 1543 1543 1542 1542 1542 1542 1542 1542 1543 1543 1543 1543 1542 1542 1541 1541 1540 1539 1538 1536 1534 1533 1531 1529 1527 1525 1524 1522 1519 1517 1515 1513 1510 1508 1505
1537 1541 1542 1542 1540 1537 1536 1532 1522 1530 1532 1535 1539 1541 1542 1543 1542 1542 1543 1543 1543 1544 1544 1544 1544 1543 1543 1542 1541 1540 1539 1537 1536 1534 1532 1530 1528 1526 1524 1522 1520 1517 1515 1512 1510 1507 1505 1501 1499
1541 1542 1545 1543 1539 1536 1529 1530 1519 1522 1522 1527 1535 1539 1541 1542 1542 1542 1543 1543 1544 1544 1544 1544 1544 1543 1542 1541 1540 1538 1537 1535 1533 1531 1529 1527 1525 1522 1520 1517 1515 1512 1510 1507 1504 1501 1498 1495 1492
1540 1537 1536 1534 1532 1526 1533 1532 1516 1514 1518 1522 1529 1535 1538 1540 1541 1542 1542 1543 1543 1544 1544 1543 1543 1542 1541 1540 1538 1536 1534 1532 1530 1528 1526 1523 1521 1519 1516 1513 1510 1507 1504 1501 1498 1494 1491 1488 1484
1534 1533 1532 1532 1526 1523 1533 1526 1512 1518 1521 1523 1527 1532 1535 1538 1539 1540 1541 1542 1542 1543 1543 1542 1541 1540 1539 1537 1536 1534 1532 1530 1527 1525 1523 1520 1517 1514 1511 1508 1505 1501 1498 1494 1490 1486 1483 1479 1475
1532 1530 1530 1529 1534 1531 1518 1515 1512 1519 1520 1523 1525 1529 1532 1535 1537 1538 1539 1540 1541 1541 1541 1540 1539 1538 1536 1535 1533 1531 1529 1527 1524 1522 1519 1516 1513 1509 1506 1502 1498 1495 1491 1487 1482 1477 1474 1470 1465
1531 1529 1533 1530 1531 1527 1518 1514 1507 1511 1514 1518 1521 1524 1528 1531 1534 1535 1537 1538 1538 1539 1538 1538 1537 1535 1534 1532 1530 1528 1526 1523 1520 1518 1515 1511 1508 1504 1500 1496 1491 1487 1483 1478 1473 1468 1464 1460 1455
1533 1533 1528 1527 1528 1526 1521 1510 1504 1505 1508 1512 1516 1520 1524 1528 1530 1532 1534 1535 1536 1536 1536 1535 1534 1532 1531 1529 1527 1525 1522 1519 1516 1513 1510 1506 1502 1497 1493 1488 1483 1479 1474 1470 1464 1459 1454 1449 1445
1525 1523 1524 1526 1525 1527 1521 1512 1506 1507 1509 1511 1514 1518 1522 1525 1527 1529 1531 1533 1533 1534 1533 1532 1531 1529 1528 1526 1524 1521 1518 1515 1512 1508 1504 1500 1495 1491 1486 1480 1475 1470 1465 1460 1455 1449 1444 1439 1434